Hourly Data Report for September 24, 2017

All times are specified in Local Standard Time (LST). Add 1 hour to adjust for Daylight Saving Time where and when it is observed.

FREDERICTON
NEW BRUNSWICK

45°52'08.000" N
66°32'14.000" W
20.70 m
8101505
71700
YFC

Related Data

No related data is available for this station

Download Data

Hourly Data (September 2017)
Hourly Data Report for September 24, 2017
Temp Definition
°C
Dew Point Temp Definition
°C
Rel Hum Definition
%
Wind Dir Definition
10's deg

Wind Spd Definition
km/h
Visibility Definition
km
Stn Press Definition
kPa
Hmdx Definition


Wind Chill Definition


Weather Definition


TIME
00:00 Legend Double Dagger 17.7 13.7 77 36 9 16.1 101.39     LegendNANA
01:00 Legend Double Dagger 16.1 11.2 72 36 9 16.1 101.42     LegendNANA
02:00 Legend Double Dagger 14.9 10.4 74 36 11 16.1 101.42     LegendNANA
03:00 Legend Double Dagger 12.8 9.9 82 LegendMM 4 16.1 101.43     LegendNANA
04:00 Legend Double Dagger 12.4 10.1 86 1 5 16.1 101.44     LegendNANA
05:00 Legend Double Dagger 11.3 9.7 90 35 8 16.1 101.44     LegendNANA
06:00 Legend Double Dagger 10.6 9.8 95 LegendMM 4 16.1 101.47     LegendNANA
07:00 Legend Double Dagger 11.5 10.4 93 33 8 16.1 101.52     LegendNANA
08:00 Legend Double Dagger 14.7 11.0 78   0 16.1 101.46     LegendNANA
09:00 Legend Double Dagger 17.2 11.9 71 20 5 16.1 101.41     LegendNANA
10:00 Legend Double Dagger 20.0 13.4 65 20 9 16.1 101.39     LegendNANA
11:00 Legend Double Dagger 23.1 15.1 60 16 8 16.1 101.30 27   LegendNANA
12:00 Legend Double Dagger 26.9 16.5 52 21 15 16.1 101.21 32   LegendNANA
13:00 Legend Double Dagger 29.1 17.0 47 22 21 16.1 101.14 34   LegendNANA
14:00 Legend Double Dagger 29.3 17.9 50 27 11 16.1 101.13 35   LegendNANA
15:00 Legend Double Dagger 30.0 18.4 49 29 9 16.1 101.08 36   LegendNANA
16:00 Legend Double Dagger 29.9 18.7 50 32 13 16.1 101.07 36   LegendNANA
17:00 Legend Double Dagger 29.3 18.7 52 31 13 16.1 101.11 36   LegendNANA
18:00 Legend Double Dagger 27.5 18.8 58 34 5 16.1 101.16 34   LegendNANA
19:00 Legend Double Dagger 23.9 19.7 77   0 16.1 101.19 31   LegendNANA
20:00 Legend Double Dagger 22.9 20.0 83 20 8 16.1 101.24 30   LegendNANA
21:00 Legend Double Dagger 23.1 18.9 77 18 5 16.1 101.28 30   LegendNANA
22:00 Legend Double Dagger 23.0 18.6 76 3 13 16.1 101.39 29   LegendNANA
23:00 Legend Double Dagger 20.8 16.3 75 5 17 16.1 101.43 26   LegendNANA

Notes on Data Quality.

Legend

  • E = Estimated
  • M = Missing
  • NA = Not Available
  • ‡ = Partner data that is not subject to review by the National Climate Archives
Date modified: